Jackpot

Texas Poker Multi Jackpot System

Kini Telah hadir Jackpot SUPER ROYAL FLUSH

Kini Telah hadir Jackpot 2000 (khusus table VIP keatas).

Ikutilah global jackpot yang tersedia di system kami, dengan system jackpot terbaru dan pertama di indonesia, anda dapat membeli jackpot dengan harga 100 rupiah saja dan menangkan hadiahnya hingga puluhan juta rupiah.

Jackpot bukanlah suatu keharusan untuk dibeli, namun kami memberikan suatu fitur tambahan untuk member tercinta dari www.remi88.com.

Terdapat tiga pilihan harga jackpot yang bisa anda beli yaitu :100,500,1000 dan 2000(khusus table VIP Keatas) rupiah.

Hadiah dari Multi jackpot system www.remi88.com

  1. full house x 10 harga jackpot yang anda beli.
      (contoh:anda membeli 1000 maka:1000 X10 = 10.000)
  2. four of kind x 250 harga jackpot yang anda beli
      (contoh:anda membeli 1000 maka:1000 X250 = 250.000)
  3. Straight flush x 1200
      (contoh:anda membeli 1000 maka:1000 X1200 = 1.200.000)
  4. Royal flush x 10000 harga jackpot yang anda beli
      (contoh:anda membeli 1000 maka:1000 X10000 = 10.000.000)
  5. SUPER ROYAL FLUSH x 30000 harga jackpot yang anda beli
      (contoh:anda membeli 1000 maka:1000 X30000 = 30.000.000)

Kondisi kartu

  1. full house adalah kondisi kartu dimana kartu anda dan kartu tengah dengan total 7 kartu bisa mendapatkan nilai 5 kartu dengan kombinasi 1 tris(three of kind) dan 1 pair, contoh 3 kartu 10 dan 2 kartu 5
  2. Four of kind adalah kondisi kartu dimana kartu anda dan kartu tengah dengan total 7 kartu bisa mendapatkan nilai 5 kartu dengan kombinasi 4 kartu yang sama jumlah dan 1 kartu apapun juga contoh anda mendapatkan 4 buah kartu angka 3 dan 1 kartu apapun.
  3. Staright flush adalah kondisi kartu dimana kartu anda dan kartu tengah dengan total 7 kartu bisa mendapatkan nilai 5 kartu dengan kombinasi seri / staright dengan kembang yang sama contoh : urutan kartu dari angka 5, 6, 7, 8 , 9 10 dengan kembang yg sama misalnya as hati
  4. Royal flush adalah kondisi kartu dimana kartu anda dan kartu tengah dengan total 7 kartu bisa mendapatkan nilai 5 kartu dengan kombinasi seri / staright dengan kembang yang sama tetapi kartu tersebut haruslah dimulai dari 10. contoh 10, Queen, Jack, King dan aces dengan kembang yang sama
  5. Super Royal flush adalah kondisi kartu dimana Kedua kartu anda digabung dengan 3 kartu pertama meja haruslah royal flush. contoh kartu anda 10,Queen kembang sama dan 3 kartu pertama meja adalah Jack, King dan aces dengan kembang yang sama

Demikian adalah penjelasan dari Multi Jackpot www.remi88.com terima kasih dan selamat bermain salam hoki dari kami

Texas Poker Jackpot Winner

TOP SUPER ROYAL FLUSH
No.TanggalNamaPriceWin
126/09 11:22UCOK0206Super Royal flush15,000,000
226/09 11:08NOPRI1987Super Royal flush15,000,000
326/09 06:07PANANGGUAKSuper Royal flush30,000,000
426/09 00:40L45TCHIPSuper Royal flush15,000,000
525/09 23:17ANDO6060Super Royal flush3,000,000
TOP ROYAL FLUSH
No.TanggalNamaPriceWin
126/09 12:16JBX938CAETRoyal flush5,000,000
226/09 12:02DW1245ASRoyal flush20,000,000
326/09 11:44SNP378Royal flush5,000,000
426/09 10:24OTSUK4Royal flush5,000,000
526/09 09:42TAILA50Royal flush5,000,000
TOP STRAIGHT FLUSH
No.TanggalNamaPriceWin
126/09 12:15S78AAP0K3RStraight Flush600,000
226/09 12:13T4DPAPIROYStraight Flush1,200,000
326/09 12:07ZALDY1234Straight Flush240,000
426/09 12:07IEBE270386Straight Flush600,000
526/09 12:04BLOEXSStraight Flush120,000
LATEST JACKPOT
No.TanggalNamaPriceWin
126/09 12:19GHOSTTTTTFull House10,000
226/09 12:19PASTI007Full House1,000
326/09 12:19LEBEK12Full House2,000
426/09 12:19IZOEL97Full House20,000
526/09 12:19MRRIVER17Four Of A Kind125,000
626/09 12:19TUMERE77Four Of A Kind125,000
726/09 12:19PAD1L100Four Of A Kind25,000
826/09 12:19AKSUN99Full House10,000
926/09 12:19HOTLINE78Full House10,000
1026/09 12:19LJLVSH1B3TFull House10,000
1126/09 12:19BANDAR_AAFull House1,000
1226/09 12:19BOTAKK08Full House2,000
1326/09 12:19BUDIWINULFull House2,000
1426/09 12:19BECAKRD3Full House1,000
1526/09 12:19SAPUHSABUFull House5,000
1626/09 12:19DAN55Full House1,000
1726/09 12:19CFX550EF15Full House10,000
1826/09 12:19BENZMARTFull House2,000
1926/09 12:19ALMEL11Full House2,000
2026/09 12:19T4DNYUNFull House5,000
2126/09 12:19MARIJAN09Full House5,000
2226/09 12:19L4UT4NFull House1,000
2326/09 12:19B3437KOWFull House1,000
2426/09 12:19TABUHRAH86Full House20,000
2526/09 12:19UNTUNG40JTFull House5,000
2626/09 12:19KONRESFour Of A Kind125,000
2726/09 12:19KETSARAPORFull House1,000
2826/09 12:19EBEG77Full House10,000
2926/09 12:19WANTO87Full House2,000
3026/09 12:19KINGKARTFull House2,000
3126/09 12:19SANPKRFull House5,000
3226/09 12:19G10WRZNYZPFull House1,000
3326/09 12:19DEFRI_JACKFull House2,000
3426/09 12:19GAJAH999Full House10,000
3526/09 12:19M4DARA168Full House5,000
3626/09 12:19YOY77Full House5,000
3726/09 12:19DYBALA010Four Of A Kind25,000
3826/09 12:19BJKONYOLFull House1,000
3926/09 12:18COOLBOY99Full House5,000
4026/09 12:18ASA1979Full House2,000
4126/09 12:18POTENG_22Full House10,000
4226/09 12:18MADSUD02Full House10,000
4326/09 12:18PASU299Full House20,000
4426/09 12:18PLGONESSFull House1,000
4526/09 12:18T4ONFull House1,000
4626/09 12:18RESCUE88Full House5,000
4726/09 12:18BOBOL_JPFour Of A Kind50,000
4826/09 12:18STRETPLASHFull House5,000
4926/09 12:18ALOY096Full House2,000
5026/09 12:18HOKIK1Full House1,000

Domino Multi Jackpot System

Ikutilah global jackpot yang tersedia di system kami, dengan system jackpot terbaru dan pertama di indonesia, anda dapat membeli jackpot dengan harga 100 rupiah saja dan menangkan hadiahnya hingga puluhan juta rupiah.

Jackpot bukanlah suatu keharusan untuk dibeli, namun kami memberikan suatu fitur tambahan untuk member tercinta dari www.remi88.com.

Terdapat tiga pilihan harga jackpot yang bisa anda beli yaitu :100,500 dan 1000 rupiah.

Hadiah dari Multi jackpot system www.remi88.com

  1. Murni Kecil x 50 harga jackpot yang anda beli.
      (contoh:anda membeli 1000 maka:1000 X 50 = 50.000)
  2. Murni Besar x 50 harga jackpot yang anda beli
      (contoh:anda membeli 1000 maka:1000 X 50 = 50.000)
  3. BALAK x 100 harga jackpot yang anda beli
      (contoh:anda membeli 1000 maka:1000 X 100 = 100.000)
  4. ENAM DEWA x 6666 harga jackpot yang anda beli
      (contoh:anda membeli 1000 maka:1000 X 6666 = 6.666.000)

Demikian adalah penjelasan dari Multi Jackpot www.remi88.com terima kasih dan selamat bermain salam hoki dari kami

Domino Jackpot Winner

TOP ENAM DEWA
No.TanggalNamaPriceWin
126/09 11:45DARDOR77murni enam666,600
226/09 11:24UWOHAAmurni enam6,666,000
326/09 09:26GENGSTER56murni enam666,600
426/09 08:48JHYmurni enam3,333,000
526/09 02:55DOAA_murni enam666,600
TOP BALAK
No.TanggalNamaPriceWin
126/09 12:19ECI_HOKIbalak100,000
226/09 12:10CAURI123balak100,000
326/09 12:08SELLONEbalak50,000
426/09 12:07CEKET103balak10,000
526/09 12:00JOSS10balak50,000
LATEST JACKPOT
No.TanggalNamaPriceWin
126/09 12:19ECI_HOKImurni kecil50,000
226/09 12:19AMI1995murni besar50,000
326/09 12:19ECI_HOKIbalak100,000
426/09 12:19RULLYANDROmurni kecil50,000
526/09 12:18HP70007murni kecil5,000
626/09 12:17ECI_HOKImurni besar50,000
726/09 12:16RIZALENmurni besar50,000
826/09 12:16MUT87murni kecil50,000
926/09 12:16QIUQIU1904murni kecil25,000
1026/09 12:15BABA088murni besar25,000
1126/09 12:15PIC_SHUITmurni kecil25,000
1226/09 12:15PUTRYFJRmurni kecil50,000
1326/09 12:15T0005677murni kecil50,000
1426/09 12:14UTOK39murni kecil25,000
1526/09 12:14BALLO1122murni kecil50,000
1626/09 12:14HOKKU22murni besar25,000
1726/09 12:14MBAHSIKURmurni kecil5,000
1826/09 12:13KUSANG16murni kecil25,000
1926/09 12:13C899murni kecil50,000
2026/09 12:13SELLONEmurni kecil25,000
2126/09 12:12AISS008murni kecil25,000
2226/09 12:12DIFA86murni kecil50,000
2326/09 12:11KOINAWANmurni kecil25,000
2426/09 12:11ROMIGE13murni besar25,000
2526/09 12:11SETYAWAmurni besar50,000
2626/09 12:11DEDANTUMmurni kecil50,000
2726/09 12:11JOSS10murni besar50,000
2826/09 12:10GODAY05murni besar5,000
2926/09 12:10WEWEG0MBELmurni besar5,000
3026/09 12:10D2NK84murni kecil5,000
3126/09 12:10CAURI123balak100,000
3226/09 12:10QQNEMGUNAmurni kecil5,000
3326/09 12:09INDAHNVSRmurni besar50,000
3426/09 12:08STATIONSIMmurni besar50,000
3526/09 12:08H_GBOSSS1murni besar25,000
3626/09 12:08SELLONEbalak50,000
3726/09 12:07CEKET103balak10,000
3826/09 12:07SET7murni besar25,000
3926/09 12:05MABUKJUDImurni besar25,000
4026/09 12:04C1PUY12murni besar25,000
4126/09 12:03ULLA08murni besar25,000
4226/09 12:03T0005677murni besar50,000
4326/09 12:03AUG2505murni besar5,000
4426/09 12:03JASMET01murni besar50,000
4526/09 12:02C899murni besar50,000
4626/09 12:02SAMEN32murni kecil5,000
4726/09 12:01FERMAN21murni kecil25,000
4826/09 12:00GUNS1976murni besar5,000
4926/09 12:00TENI06murni kecil25,000
5026/09 12:00JOSS10balak50,000

Ceme Multi Jackpot System

Jackpot dilihat dari gabungan kartu pemain dengan kartu bandar. Bandar harus membeli jackpot sebanyak jumlah player yang sedang duduk. Sebagai contoh bila terdapat 3 pemain duduk bermain, dan bandar memutuskan untuk membeli jackpot Rp 1.000, maka pada periode tersebut bandar akan membeli jackpot sebanyak 3xRp1.000 = Rp3.000.

Jackpot bukanlah suatu keharusan untuk dibeli, namun kami memberikan suatu fitur tambahan untuk member tercinta dari www.remi88.com.

Terdapat tiga pilihan harga jackpot yang bisa anda beli yaitu :100,500 dan 1000 rupiah.

Hadiah dari Multi jackpot system www.remi88.com

  1. Murni Kecil x 50 harga jackpot yang anda beli.
      (contoh:anda membeli 1000 maka:1000 X 50 = 50.000)
  2. Murni Besar x 50 harga jackpot yang anda beli
      (contoh:anda membeli 1000 maka:1000 X 50 = 50.000)
  3. BALAK x 200 harga jackpot yang anda beli
      (contoh:anda membeli 1000 maka:1000 X 200 = 200.000)
  4. ENAM DEWA x 6666 harga jackpot yang anda beli
      (contoh:anda membeli 1000 maka:1000 X 6666 = 6.666.000)

Demikian adalah penjelasan dari Multi Jackpot www.remi88.com terima kasih dan selamat bermain salam hoki dari kami

Ceme Jackpot Winner

TOP ENAM DEWA
No.TanggalNamaPriceWin
126/09 12:14KOTAUTARAmurni enam3,333,000
226/09 12:14MADIN78murni enam6,666,000
326/09 11:12CAHYO180murni enam666,600
426/09 11:05LECHANmurni enam666,600
526/09 11:05TRENDY22murni enam3,333,000
TOP BALAK
No.TanggalNamaPriceWin
126/09 12:19PEMUDAINDObalak200,000
226/09 12:18AJAZ_balak100,000
326/09 12:17AKU18252balak200,000
426/09 12:17ASHI13balak100,000
526/09 12:16PENYELAM24balak20,000
LATEST JACKPOT
No.TanggalNamaPriceWin
126/09 12:19FJR2606murni kecil25,000
226/09 12:19ROBBYLIMmurni kecil25,000
326/09 12:19B1786TTDmurni kecil50,000
426/09 12:19CINGIR99murni besar5,000
526/09 12:19PEMUDAINDObalak200,000
626/09 12:19AICEMONK88murni kecil5,000
726/09 12:19NAZMI07murni kecil50,000
826/09 12:19JAMESB00Nmurni kecil50,000
926/09 12:18PAIJO987murni besar25,000
1026/09 12:18B2262DGmurni besar50,000
1126/09 12:18KEANU1201murni kecil25,000
1226/09 12:18PARSENANmurni kecil25,000
1326/09 12:18KOMPIUTER2murni kecil50,000
1426/09 12:18LLBZLLmurni besar50,000
1526/09 12:18AJAZ_balak100,000
1626/09 12:18N4AG4TO_JPmurni besar25,000
1726/09 12:18NAZMI07murni besar50,000
1826/09 12:18URWANJ2WFOmurni besar5,000
1926/09 12:17JHONN86murni besar25,000
2026/09 12:17QKDHANmurni kecil50,000
2126/09 12:17UMPUANmurni kecil25,000
2226/09 12:17AKU18252balak200,000
2326/09 12:17ASHI13balak100,000
2426/09 12:17SENK68murni besar25,000
2526/09 12:17MEGAPROZLmurni besar25,000
2626/09 12:17ANDEGRONmurni kecil25,000
2726/09 12:17CANIA23murni kecil25,000
2826/09 12:17KRAKATAU11murni kecil50,000
2926/09 12:17IZURA96murni kecil5,000
3026/09 12:16WQWSLYKZRYmurni besar5,000
3126/09 12:16N4AG4TO_JPmurni kecil25,000
3226/09 12:16JOYHUNTERmurni kecil25,000
3326/09 12:16CADAZZ10murni kecil50,000
3426/09 12:16JJG8K6TLBHmurni kecil50,000
3526/09 12:16HERU1823murni besar5,000
3626/09 12:16JUAGE88murni besar5,000
3726/09 12:16AYAM_GEPUKmurni besar25,000
3826/09 12:16OZE01murni besar5,000
3926/09 12:16PENYELAM24balak20,000
4026/09 12:16WQWSLYKZRYbalak20,000
4126/09 12:16CHAKILLLbalak20,000
4226/09 12:16MAR5388murni kecil25,000
4326/09 12:16TJITJONGmurni kecil5,000
4426/09 12:15DHEN101balak200,000
4526/09 12:15RAWON70balak200,000
4626/09 12:15HEND1703murni besar50,000
4726/09 12:15WATETQIUmurni besar50,000
4826/09 12:15CUANKI83murni besar25,000
4926/09 12:15ROBBYLIMbalak100,000
5026/09 12:15MZNSTRmurni kecil50,000